Volver al catálogo

PELICAN-9 3010

ActivoComunicacionesSSO
NORAD 69019·PAYLOAD·🇺🇸 United States

Lanzado May 3, 2026 desde Vandenberg Space Force Base

Loading…

Próximos Pases (próximas 24 horas)

TLE

ActualizadoSource: CelesTrak SupGP

Época: Sep 15, 2026, 02:44 UTC

1 69019C 26100U   26258.11440972  .00010842  00000+0  41094-3 0  2588
2 69019  97.2628 153.9976 0003570 106.9000 240.1517 15.26940956    10

Sigue PELICAN-9 3010 en tiempo real con AllMySat

Download on the App Store